Humidity-temperature Sensor

Selected Measurement Type: Air Temperature

 
Air Temperature [°C]     6 entries per hour
Showing data from 8/28/2016 (00:00:00 Z) to 8/27/2016 (00:01:00 Z)
Previous Next [ Day | 3-Days | 7-Days ]
First Last
Prev [ Day | 3-Days | 7-Days ] Next
First Last

Start Time:     :
End Time:     :     
Time (in GMT) :00 :50 :40 :30 :20 :10
Previous Next [ Day | 3-Days | 7-Days ]
First Last
Prev [ Day | 3-Days | 7-Days ] Next
First Last


123 => good data
MM => data is determined as missing
-- => data not received/configured
Back to Top Back to Top
8/28/2016 00:00 to 23:10 28.77 28.72 28.66 28.59 28.64 28.59
8/27/2016 23:00 to 22:10 28.59 28.53 28.52 28.53 28.55 28.61
8/27/2016 22:00 to 21:10 -- -- -- -- -- --
8/27/2016 21:00 to 20:10 28.70 28.60 28.53 28.48 28.46 28.37
8/27/2016 20:00 to 19:10 28.38 28.46 28.38 28.23 28.16 28.10
8/27/2016 19:00 to 18:10 28.11 28.08 28.05 28.00 27.94 27.89
8/27/2016 18:00 to 17:10 27.89 27.88 27.81 27.78 27.81 27.69
8/27/2016 17:00 to 16:10 27.73 27.66 27.66 27.69 27.65 27.56
8/27/2016 16:00 to 15:10 27.66 27.66 27.60 27.60 27.53 27.50
8/27/2016 15:00 to 14:10 27.58 27.55 27.54 27.48 27.48 27.44
8/27/2016 14:00 to 13:10 27.44 27.51 27.52 27.51 27.44 27.48
8/27/2016 13:00 to 12:10 27.44 27.51 27.49 27.47 27.46 27.44
8/27/2016 12:00 to 11:10 27.49 27.49 27.55 27.50 27.57 27.53
8/27/2016 11:00 to 10:10 27.56 27.55 27.54 27.56 27.58 27.57
8/27/2016 10:00 to 9:10 27.54 27.55 27.55 27.53 27.57 27.50
8/27/2016 09:00 to 8:10 27.49 27.44 27.45 27.44 27.40 27.41
8/27/2016 08:00 to 7:10 27.43 27.38 27.35 27.38 27.40 27.39
8/27/2016 07:00 to 6:10 27.35 27.31 27.27 27.27 27.19 27.19
8/27/2016 06:00 to 5:10 27.19 27.20 27.14 27.12 27.12 27.12
8/27/2016 05:00 to 4:10 27.16 27.14 27.13 27.10 27.14 27.15
8/27/2016 04:00 to 3:10 27.17 27.24 27.20 27.15 27.09 27.07
8/27/2016 03:00 to 2:10 27.11 27.11 27.02 27.01 26.94 26.87
8/27/2016 02:00 to 1:10 26.82 26.81 26.82 26.75 26.75 26.67
8/27/2016 01:00 to 0:10 26.68 26.78 26.74 26.70 26.64 26.66